Cosmos 1461 - Orbit

View from above orbital plane
View from above orbital plane
View from above satellite
View from above satellite

Ground track
Ground track

The orbit data is extracted from the following two-line orbital elements,

1 14064U 83044A   13146.52450306  .00002597  00000-0  26751-3 0  1847
2 14064 065.0038 170.3492 0137337 270.5446 233.1960 14.85784777502365
Epoch (UTC): 26 May 2013 12:35:17
Eccentricity: 0.0137337
inclination: 65.0038°
perigee height: 515 km
apogee height: 707 km
right ascension of ascending node: 170.3492°
argument of perigee: 270.5446°
revolutions per day: 14.85784777
mean anomaly at epoch: 233.1960°
orbit number at epoch: 50236

The dashed part of the orbit path shows where the satellite is in the earth's shadow,  

Developed and maintained by Chris Peat, Heavens-Above GmbH. Please read the updated FAQ before sending e-mail. Imprint. DLR